Temp_Advection
nan nan nan nan nan nan nan nan nan nan nan nan nan nan nan nan nan nan nan nan nan nan nan nan nan nan nan nan nan nan nan nan nan nan nan nan nan nan nan nan nan nan nan nan nan nan nan nan nan nan nan nan nan nan nan nan nan nan nan nan nan nan nan nan nan nan nan nan nan
nan 0 0 0 0 0 0 0 0 0 0 0 0 0 0 0 0 0 0 0 0 0 0 0 0 0 -0 -0 -0 0 0 0 0 -0 -0 -0 -0 -0 -0 -0 -0 -0 -0 -0 -0 -0 -0 -0 -0 -0 -0 -0 -0 -0 0 0 0 0 -0 0 0 0 0 0 0 0 0 0 nan
nan -0 -0 -0 -0 -0 -0 -0 -0 -0 -0 -0 -0 0 0 0 0 0 0 0 0 0 0 0 0 0 0 -0 -0 -0 -0 -0 -0 -0 -0 -0 -0 -0 -0 -0 -0 -0 -0 -0 -0 -0 0 -0 0 0 0 0 0 0 0 0 0 -0 -0 -0 0 -0 -0 -0 -0 -0 -0 0 nan
nan -0 -0 -0 -0 -0 -0 -0 -0 -0 -0 -0 -0 -0 -0 -0 -0 -0 -0 -0 -0 0 0 0 0 0 -0 -0 -0 -0 -0 -0 -0 -0 -0 -0 -0 -0 -0 -0 -0 0 0 0 0 0 0 0 0 0 0 0 0 -0 0 0 0 -0 -0 -0 -0 -0 -0 -0 -0 -0 -0 -0 nan
nan -0 -0 -0 -0 -0 -0 -0 -0 -0 -0 -0 -0 -0 -0 -0 -0 0 0 0 -0 0 0 0 -0 -0 -0 -0 -0 -0 -0 -0 -0 0 0 0 0 0 0 0 0 0 0 0 0 -0 -0 -0 0 0 0 0 -0 0 0 0 -0 -0 -0 -0 -0 -0 -0 -0 -0 -0 -0 -0 nan
nan -0 -0 -0 0 0 0 0 0 0 0 0 0 0 0 0 0 0 0 0 0 -0 -0 -0 -0 -0 -0 -0 0 0 0 0 0 0 0 0 0 0 0 0 0 0 0 -0 -0 -0 -0 -0 -0 -0 0 -0 -0 0 0 0 -0 -0 -0 -0 -0 -0 -0 -0 -0 -0 -0 -0 nan
nan 0 0 1 1 1 1 1 1 1 1 1 0 0 0 0 0 0 -0 -0 -0 -0 -0 -0 -0 0 0 0 0 0 0 0 0 0 0 0 0 0 -0 -0 -0 -0 -0 -0 -0 -0 -0 -0 -0 -0 -0 -0 -0 -0 0 0 -0 -0 -0 -0 -0 -0 -0 -0 -0 -0 -0 -0 nan
nan 1 1 1 1 1 1 1 1 1 0 0 0 0 -0 -0 -0 -0 -0 -0 -0 -0 0 0 0 0 0 0 0 0 0 0 0 0 0 0 0 0 0 -0 -0 -0 -0 -0 -0 -0 -0 -0 -0 -0 -0 -0 -0 -0 -0 -0 -0 -0 -0 -0 -0 -0 -0 -0 -0 -0 -0 -0 nan
nan 0 0 0 -0 0 0 0 0 0 0 -0 -0 -0 -0 -0 -0 0 0 0 0 0 0 0 0 0 0 0 0 0 0 0 0 0 0 0 -0 -0 -0 -0 -0 -0 -0 -0 -0 -0 -0 -0 -0 -0 -0 -0 -0 -0 -0 -0 -0 -0 -0 -0 -0 -0 -0 -0 -0 -0 -0 -0 nan
nan -0 -0 -0 -0 -0 -0 -0 -0 -0 -0 -0 -0 -0 0 0 0 0 0 0 0 0 0 0 0 0 0 0 0 0 0 0 0 0 -0 -0 0 0 0 -0 -0 -0 -0 0 -0 -0 -0 -0 -0 -0 -0 -0 -0 -0 -0 -0 -0 -0 -0 -0 -0 -0 -0 -0 -0 -0 -0 -0 nan
nan -0 -0 -0 -0 -0 -0 -0 -0 0 0 0 0 0 0 0 0 0 0 0 0 0 0 0 0 0 0 0 0 0 0 0 0 0 0 0 0 0 0 0 0 0 0 0 0 0 0 0 0 0 0 -0 -0 -0 -0 0 -0 -0 -0 -0 -0 -0 -0 -0 -0 -0 -0 -0 nan
nan -0 -0 -0 0 0 0 0 0 0 0 0 0 0 0 0 0 0 0 0 0 0 0 0 -0 0 0 0 0 0 0 0 0 0 0 0 0 0 0 0 0 0 0 0 0 0 0 0 0 0 0 0 0 -0 -0 -0 -0 -0 -0 0 -0 -0 -0 -0 -0 -0 -0 -0 nan
nan -0 0 0 0 0 0 0 0 0 0 0 0 0 0 0 0 0 -0 -0 0 0 0 -0 -0 0 0 0 0 0 0 0 0 0 -0 0 0 0 0 -0 0 0 0 0 0 0 0 -0 0 0 0 0 0 0 -0 -0 -0 -0 -0 -0 -0 -0 -0 -0 -0 -0 -0 -0 nan
nan 0 -0 -0 0 0 0 0 0 0 0 -0 -0 -0 0 0 0 0 0 0 0 0 -0 0 0 0 0 0 0 0 0 -0 -0 -0 -0 -0 -0 0 0 -0 0 0 0 0 -0 -0 -0 -0 -0 -0 -0 0 -0 -0 -0 -0 -0 -0 -0 -0 -0 -0 -0 -0 0 -0 -0 -0 nan
nan -0 -0 -0 0 0 0 0 -0 -0 0 0 0 0 0 0 0 0 0 0 0 0 0 0 -0 -0 -0 0 0 0 0 0 0 0 0 0 0 0 0 0 0 0 0 0 0 0 0 -0 -0 -0 -0 -0 -0 0 0 -0 0 -0 -0 -0 -0 -0 -0 -0 -0 -0 -0 -0 nan
nan -0 -0 0 0 0 0 0 0 0 0 0 0 0 0 0 0 0 0 0 0 0 0 0 0 0 -0 0 0 0 0 -0 0 0 0 0 0 0 0 0 0 0 0 0 0 0 0 0 0 0 0 -0 -0 -0 0 0 0 0 0 -0 -0 -0 -0 -0 -0 -0 -0 0 nan
nan 0 0 0 0 0 0 0 0 0 0 0 0 0 -0 -0 -0 0 0 0 0 0 -0 -0 -0 -0 -0 -0 -0 -0 -0 -0 -0 -0 -0 -0 -0 -0 -0 -0 -0 -0 -0 0 0 0 0 0 0 0 0 0 -0 -0 -0 -0 0 0 0 0 0 0 0 -0 -0 -0 -0 -0 nan
nan 0 0 0 0 0 0 -0 -0 -0 -0 -0 -0 -0 -0 -0 -0 -0 -0 -0 -0 -0 -0 -0 -0 -0 -0 -0 -0 -0 -0 -0 -0 -0 -0 -0 -0 -0 -0 -0 -0 -0 -0 -0 -0 -0 -0 -0 0 0 0 0 -0 -0 -0 -0 -0 -0 -0 0 0 0 0 0 0 -0 -0 -1 nan
nan 0 0 0 -0 -0 -0 -0 -0 -0 -0 -0 -0 -0 -0 -0 -0 -0 -0 -0 -0 -0 -0 -0 -0 -0 -0 -0 -0 -0 -0 -0 -0 -0 -0 -0 -0 -0 -0 -0 -0 -0 -0 -0 -0 -0 -0 -0 -0 -0 -0 -0 -0 -0 -0 -0 -0 -0 -0 -0 -0 -0 0 0 0 -0 -0 -0 nan
nan -0 -0 -0 -0 -0 -0 -0 -0 -0 -0 -0 -0 -0 -0 -0 -0 -0 -0 -0 -0 -0 -0 -0 -0 -0 -0 -0 -0 -0 -0 -0 -0 -0 -0 -0 -0 -0 -0 -0 -0 -0 -0 -0 -0 -0 -1 -1 -1 -0 -0 -0 -0 -0 -0 -0 -0 -0 -0 -0 -0 -0 -0 0 0 -0 -0 -0 nan
nan -0 -0 -0 -0 -0 -0 -0 -0 -0 -0 -0 -0 -0 -0 -0 -0 -0 -0 -0 -0 -0 -0 -0 -0 -0 -0 -0 -0 -0 -0 -0 -0 -0 -0 -0 -0 -1 -1 -1 -1 -1 -1 -1 -1 -1 -1 -1 -1 -1 -1 -1 -1 -1 -1 -1 -0 -0 -0 -0 -0 -0 -0 -0 0 0 0 0 nan
nan -0 -0 -0 -0 -0 -0 -0 -0 -0 -0 -0 -0 -0 -0 -0 -0 -0 -0 -0 -0 -0 -0 -0 -0 -0 -0 -0 -0 -0 -0 -0 -1 -1 -1 -1 -1 -1 -1 -1 -1 -1 -1 -1 -1 -1 -1 -1 -1 -1 -1 -1 -1 -1 -1 -1 -1 -1 -1 -1 -0 -0 -0 -0 0 0 0 0 nan
nan -0 -0 -0 -0 -0 -0 -0 -0 -0 -0 -0 -0 -0 -0 -0 -0 -0 -0 -0 -0 -0 -0 -0 -1 -1 -1 -1 -1 -1 -1 -1 -0 -1 -1 -1 -1 -1 -1 -1 -1 -1 -1 -1 -1 -1 -1 -1 -1 -1 -1 -1 -1 -1 -1 -1 -1 -1 -1 -1 -1 -1 -1 -1 -0 -0 -0 0 nan
nan -0 -0 -0 -0 -0 -0 -0 -0 -0 -0 -0 -0 -0 -0 -0 -0 -0 -0 -0 -0 -0 -1 -1 -1 -1 -1 -1 -1 -1 -1 -1 -0 -0 -0 -0 -0 -1 -1 -1 -1 -1 -1 -1 -1 -1 -1 -1 -1 -1 -1 -1 -1 -1 -1 -1 -1 -1 -1 -2 -1 -1 -1 -1 -1 -1 -0 -0 nan
nan -0 -0 -0 -0 -0 -0 -0 -0 -0 -0 -0 -0 -0 -0 -0 -0 -0 -0 -0 -0 -0 -0 -0 -0 -0 -0 -0 -0 -1 -1 -1 -0 -0 -0 -0 -0 -0 -0 -0 -0 -0 -0 -0 -0 -0 -0 -1 -1 -1 -1 -1 -1 -1 -1 -1 -1 -1 -1 -1 -2 -2 -2 -2 -1 -1 -1 -1 nan
nan -0 -0 -0 -0 -0 -0 -0 -0 -0 -0 -0 -0 -0 -0 -0 -0 -0 -0 -0 -0 -0 -0 -0 -0 -0 -0 -0 -0 -0 -0 -0 -0 -0 -0 -0 0 0 0 0 0 0 -0 -0 -0 0 0 0 -0 -0 -1 -1 -1 -1 -1 -1 -1 -1 -1 -1 -1 -2 -2 -2 -2 -2 -2 -1 nan
nan -0 -0 -0 -0 -0 -0 -0 -0 -0 -0 -0 -0 -0 -0 -0 -0 -0 -0 -0 -0 -0 -0 -0 -0 -0 -0 -0 -0 -0 -0 -0 -0 -0 -0 -0 -0 -0 0 0 0 0 -0 -0 -0 -0 0 0 0 0 -0 -1 -1 -1 -2 -2 -1 -1 -1 -1 -1 -1 -1 -1 -2 -2 -2 -2 nan
nan -0 -0 -0 -0 -0 -0 -0 -0 -0 -0 -0 -0 -0 -0 -0 -0 -0 -0 -0 -0 -0 -0 -0 -0 -0 -0 -0 -0 -0 -0 -0 -0 -0 -1 -1 -1 -1 -1 -0 -0 -0 -0 -1 -1 -1 -1 -0 -0 -0 0 -0 -1 -1 -2 -2 -2 -2 -2 -2 -1 -1 -1 -1 -1 -1 -2 -2 nan
nan -0 -0 -0 -0 -0 -0 -0 -0 -0 -0 -0 -0 -0 -0 -0 -0 -0 -0 -0 -0 -0 -0 -0 -0 -0 -0 -0 -0 -0 -0 -1 -1 -1 -1 -1 -1 -1 -1 -1 -1 -1 -1 -1 -1 -1 -1 -1 -1 -1 -1 -1 -1 -1 -1 -2 -2 -2 -2 -2 -2 -2 -2 -2 -2 -2 -2 -2 nan
nan -0 -0 -0 -0 -0 -0 -0 -0 -0 -0 -0 -0 -0 -0 -0 -0 -0 -0 -0 -0 -0 -0 -0 -0 -1 -1 -1 -1 -1 -1 -1 -1 -1 -2 -2 -2 -2 -1 -1 -1 -1 -1 -1 -1 -1 -1 -1 -1 -1 -1 -1 -1 -1 -1 -1 -1 -2 -2 -2 -2 -2 -2 -2 -2 -2 -2 -2 nan
nan -0 -0 -0 -0 -0 -0 -0 -0 -0 -0 -0 -0 -0 -0 -0 -0 -0 -1 -0 -1 -1 -1 -1 -1 -1 -1 -1 -1 -1 -1 -1 -1 -2 -2 -2 -2 -2 -2 -1 -1 -1 -1 -1 -1 -1 -1 -1 -1 -1 -1 -0 -0 -0 -1 -1 -1 -1 -1 -1 -1 -1 -1 -2 -2 -2 -2 -2 nan
nan -0 -0 -0 -0 -0 -0 -0 -0 -0 -0 -0 -0 -0 -0 -1 -1 -1 -1 -1 -1 -1 -1 -1 -1 -1 -1 -1 -1 -1 -1 -1 -1 -1 -1 -1 -2 -1 -1 -1 -1 -1 -1 -1 -1 -1 -1 -0 -0 -0 -0 -0 -0 -0 -0 -0 -0 -0 -0 -1 -0 -0 -0 -1 -1 -2 -2 -2 nan
nan -0 -0 -0 -0 -0 -0 -0 -0 -0 -0 -1 -1 -1 -1 -1 -1 -1 -1 -1 -1 -2 -2 -2 -2 -2 -2 -2 -2 -1 -1 -1 -1 -1 -1 -1 -1 -1 -1 -1 -1 -1 -0 -0 -0 -0 -0 -0 -0 -0 -0 -0 -0 -0 -0 -0 -0 -1 -1 -1 -0 -0 -0 -1 -1 -2 -2 -2 nan
nan -0 -0 -0 -0 -0 -0 -1 -1 -1 -1 -1 -1 -1 -1 -1 -2 -2 -2 -2 -2 -2 -2 -1 -2 -2 -1 -1 -1 -1 -1 -1 -1 -1 -1 -1 -1 -1 -1 -0 -0 -0 -0 -0 -0 -0 -0 -0 -0 -0 -0 -0 -0 -1 -1 -0 -1 -1 -1 -1 -1 -1 -1 -1 -1 -2 -2 -2 nan
nan -0 -0 -0 -1 -1 -1 -1 -1 -1 -1 -1 -1 -1 -1 -1 -1 -2 -1 -1 -1 -1 -1 -1 -1 -1 -1 -1 -1 -1 -1 -1 -0 -0 -0 -0 -0 -0 -0 -0 -0 -0 -0 -0 -0 -0 -0 -0 -0 -0 -0 -0 -1 -1 -1 -1 -1 -1 -1 -1 -1 -1 -1 -1 -1 -1 -1 -1 nan
nan -1 -1 -1 -1 -1 -1 -1 -1 -1 -1 -1 -1 -1 -1 -1 -1 -1 -1 -1 -1 -1 -1 -1 -1 -1 -1 -0 -0 -0 -0 -0 -0 -0 -0 -0 -0 -1 -0 -0 -0 -0 -0 -0 -0 -0 -0 -0 -0 -0 -0 -0 -1 -1 -1 -1 -1 -1 -2 -1 -1 -1 -1 -1 -1 -1 -1 -1 nan
nan -1 -1 -1 -1 -1 -1 -1 -1 -1 -1 -1 -1 -1 -1 -1 -1 -1 -1 -1 -1 -1 -1 -0 -0 -0 -0 -0 -0 -0 -0 -0 -0 -0 -0 -0 -1 -1 -1 -0 -0 -0 -0 -0 -0 -0 -0 -0 -0 -0 -1 -1 -1 -1 -2 -2 -1 -1 -2 -2 -2 -1 -1 -1 -1 -1 -1 -1 nan
nan -1 -1 -1 -1 -1 -1 -1 -1 -1 -1 -1 -1 -1 -1 -1 -1 -0 -0 -1 -1 -1 -0 -0 -0 -0 -0 -0 -0 -0 -0 -0 -0 -1 -0 -0 -1 -1 -1 -1 -1 -0 -0 -0 -0 -0 -0 -0 0 0 -0 -1 -1 -1 -2 -2 -2 -1 -1 -2 -2 -2 -1 -1 -1 -1 -1 -1 nan
nan -1 -1 -1 -1 -1 -1 -1 -1 -1 -1 -1 -1 -0 -0 -0 -0 -0 -0 -0 -1 -0 -0 -0 -0 -0 -0 -0 -0 -0 -0 -0 -0 -0 -0 -0 -0 -1 -1 -1 -1 -0 -0 -0 -0 -0 -0 -0 0 1 1 0 -0 -1 -1 -1 -1 -0 -0 -1 -2 -2 -2 -1 -1 -1 -1 -1 nan
nan -1 -1 -1 -1 -1 -1 -1 -0 -1 -1 -1 -0 -0 -0 -0 -0 -0 -0 -0 -0 -0 -0 -0 -0 -0 -0 -0 -1 -1 -0 -0 -0 -0 -0 -0 -0 -0 -1 -1 -1 -0 -0 -0 0 0 0 0 1 1 2 1 1 1 1 0 0 1 1 1 0 -0 -1 -2 -1 -1 -0 -0 nan
nan nan nan nan nan nan nan nan nan nan nan nan nan nan nan nan nan nan nan nan nan nan nan nan nan nan nan nan nan nan nan nan nan nan nan nan nan nan nan nan nan nan nan nan nan nan nan nan nan nan nan nan nan nan nan nan nan nan nan nan nan nan nan nan nan nan nan nan nan
Wind_Speed
16 17 17 17 17 17 16 14 13 12 12 12 13 14 14 14 15 15 15 15 14 12 10 9 9 10 10 10 9 9 9 9 9 9 11 12 13 13 13 13 13 14 14 15 15 16 16 17 17 17 18 18 18 19 19 19 19 19 19 19 19 19 20 21 22 22 22 22 22
15 15 15 15 14 14 13 11 10 10 10 10 11 11 12 13 13 14 13 12 11 10 10 10 11 12 12 11 10 10 10 10 10 11 12 12 12 12 13 13 13 14 14 14 15 15 15 15 15 15 15 15 15 15 15 15 15 15 15 15 16 16 17 18 20 20 21 21 21
15 16 16 15 14 14 13 12 11 10 10 9 10 10 11 12 12 12 11 11 12 12 11 11 11 12 12 11 11 10 10 11 11 11 11 11 11 11 11 11 12 12 12 12 12 13 12 13 13 12 13 13 13 13 13 13 13 14 14 15 15 16 16 17 18 19 19 20 20
16 16 17 16 15 14 13 11 10 10 9 9 9 10 10 11 12 12 13 13 13 12 11 10 9 9 9 9 10 10 10 10 9 9 9 9 9 9 9 9 9 10 10 10 10 10 10 11 11 11 12 13 13 13 13 13 14 14 15 15 16 16 17 17 17 18 18 18 18
18 18 18 17 16 15 14 12 11 10 11 11 11 11 11 12 12 13 13 13 12 11 10 9 8 8 8 8 8 8 8 8 7 7 7 7 7 7 8 8 8 8 8 9 9 9 10 10 11 11 12 13 13 13 13 14 14 15 15 16 16 16 17 17 17 17 17 18 18
20 19 19 19 19 18 17 16 14 14 13 13 12 12 11 11 11 10 10 10 9 8 8 7 7 6 6 6 6 6 5 5 5 5 5 6 6 6 7 7 7 7 8 8 9 9 10 11 11 12 12 13 13 14 14 14 15 16 16 16 16 16 16 16 17 17 17 18 18
21 21 20 20 20 19 19 18 17 16 14 13 12 11 10 9 9 8 8 7 7 6 6 6 5 5 4 4 4 4 4 4 4 4 5 5 6 6 6 7 7 8 8 9 9 10 11 11 12 12 13 14 14 14 15 15 16 16 17 17 17 17 17 16 17 17 17 18 18
21 20 19 18 17 17 16 16 15 14 12 11 10 10 9 8 8 7 6 6 6 5 5 4 4 4 3 3 3 3 4 4 4 5 5 5 6 6 7 7 8 8 9 10 10 11 12 12 13 14 14 15 15 16 16 16 17 18 18 19 19 18 18 17 17 17 18 18 18
19 18 17 16 15 15 14 13 12 11 11 10 10 9 9 8 7 7 6 6 5 5 4 4 3 3 3 3 3 4 4 4 5 5 6 6 7 7 8 9 9 10 10 11 12 12 13 14 15 15 16 17 17 18 18 18 19 19 20 20 20 20 20 19 19 19 19 19 19
19 18 17 17 16 15 14 13 12 11 11 10 10 9 8 8 7 6 6 5 5 4 4 3 3 3 3 3 4 4 5 6 6 7 8 8 9 10 10 11 11 12 13 13 14 15 15 16 17 17 18 19 19 20 20 21 21 21 22 22 22 22 22 22 22 22 22 22 22
19 19 18 17 16 15 14 13 12 12 11 10 9 9 8 7 6 5 4 4 3 3 2 2 2 3 4 5 6 6 7 8 9 10 11 11 12 13 13 14 14 15 15 16 17 17 18 18 19 19 20 21 22 22 23 23 23 24 24 24 24 24 24 24 24 24 24 25 25
19 18 17 16 15 14 13 12 11 11 10 9 8 7 6 5 4 3 2 1 1 1 2 3 4 5 6 7 8 9 10 11 12 13 14 14 15 16 17 17 18 18 19 19 20 20 20 21 21 22 22 23 23 24 24 25 25 26 26 26 26 26 26 26 26 26 27 27 27
17 17 16 14 13 12 11 10 9 8 8 7 6 5 3 2 1 0 1 2 3 4 5 6 7 8 9 10 11 12 13 14 15 15 16 17 18 18 19 19 20 20 21 21 22 22 22 23 23 23 24 24 25 25 25 26 26 27 27 27 27 27 27 27 28 28 28 28 28
15 14 13 12 11 10 8 7 7 6 5 4 3 2 1 1 2 3 4 4 6 7 8 9 10 11 12 12 13 14 15 16 16 17 18 18 19 19 20 20 21 21 21 22 22 23 23 23 24 24 24 25 25 25 26 26 27 27 27 28 28 28 28 28 28 28 29 29 29
13 12 11 10 8 7 6 5 4 3 2 1 1 2 3 4 5 5 6 7 8 9 10 11 12 13 14 14 15 16 16 17 17 18 18 19 19 20 20 20 21 21 21 22 22 22 23 23 24 24 25 25 25 26 26 26 27 27 27 28 28 28 28 29 29 29 29 30 30
10 9 8 6 5 4 3 2 2 2 2 3 4 5 6 6 7 8 9 10 10 11 12 12 13 14 15 15 16 16 17 18 18 18 19 19 20 20 20 20 21 21 21 22 22 22 23 23 24 24 25 25 25 26 26 27 27 27 28 28 28 29 29 29 30 30 30 30 31
7 6 5 4 3 2 2 3 3 4 5 6 6 7 8 9 9 10 11 11 12 12 13 13 14 14 15 15 16 16 17 17 17 18 18 19 19 19 20 20 20 21 21 21 22 22 23 23 24 24 25 25 26 26 27 27 27 28 28 28 29 29 29 30 30 30 31 31 32
5 4 4 3 3 4 4 5 5 6 7 7 8 9 9 10 10 11 11 12 12 12 13 13 14 14 14 15 15 15 16 16 16 17 17 18 18 18 19 19 20 20 21 21 22 22 23 23 24 24 25 25 26 26 27 27 28 28 28 29 29 29 30 30 30 31 31 32 32
4 4 4 4 5 5 6 6 7 7 8 8 9 9 9 10 10 10 11 11 11 12 12 12 13 13 13 13 14 14 14 15 15 16 16 17 17 18 18 19 19 20 20 21 22 22 23 23 24 25 25 26 26 27 27 28 28 28 29 29 29 30 30 30 30 31 31 32 32
5 5 5 5 6 6 7 7 7 8 8 8 9 9 9 9 10 10 10 10 11 11 11 11 12 12 12 13 13 13 14 14 15 15 16 17 17 18 18 18 19 20 20 21 21 22 23 23 24 24 25 26 26 27 27 27 28 28 29 29 29 29 30 30 30 31 31 31 32
5 5 6 6 6 6 6 7 7 7 7 8 8 8 8 9 9 9 9 10 10 10 10 11 11 12 12 12 13 13 14 15 15 16 16 17 17 18 18 19 19 20 20 21 21 22 22 23 24 24 25 25 26 26 27 27 28 28 28 28 29 29 29 29 30 30 30 31 31
6 6 6 6 6 6 6 6 7 7 7 7 7 8 8 8 8 9 9 9 10 10 11 11 12 12 13 13 14 14 15 15 16 16 17 17 18 18 19 19 20 20 21 21 22 22 23 23 24 24 25 26 26 27 27 28 28 28 29 29 29 29 29 29 29 30 30 30 30
6 6 6 6 6 6 6 7 7 7 7 7 7 7 8 8 8 9 9 10 10 11 11 12 13 13 14 15 15 16 16 16 17 17 18 18 19 19 20 20 21 21 22 22 23 23 24 25 25 26 26 27 27 28 28 28 29 29 30 30 30 30 30 30 30 30 30 30 30
7 7 7 7 6 6 7 7 6 6 7 7 7 8 8 9 9 10 10 11 11 12 13 13 14 15 15 16 17 17 18 18 18 19 19 19 20 20 21 21 22 22 23 24 24 25 25 26 27 28 28 28 29 29 29 30 30 31 31 31 32 32 32 31 31 31 31 31 31
7 7 6 6 6 6 6 6 6 6 7 7 8 9 9 10 10 11 11 12 13 13 14 15 15 16 16 17 18 19 19 20 20 21 21 21 22 22 23 23 24 24 25 25 26 26 26 27 28 29 29 30 30 31 31 31 31 31 32 32 32 33 33 33 32 32 32 32 32
6 6 6 6 6 6 6 6 7 7 8 9 9 10 10 11 11 12 13 13 14 15 15 16 17 17 18 19 20 20 21 22 22 23 23 24 24 25 25 25 26 26 27 27 27 27 28 28 28 29 30 30 31 32 32 33 33 32 32 32 33 33 33 33 33 33 32 32 32
7 6 7 7 7 7 7 8 8 9 9 10 10 11 12 12 13 14 14 15 16 17 17 18 19 20 20 21 22 22 23 24 24 25 26 26 27 27 27 28 28 28 28 29 29 29 29 29 29 29 30 31 32 32 33 33 34 34 33 33 33 33 33 33 33 33 32 32 31
7 7 7 8 8 8 9 9 10 10 11 11 12 13 14 14 15 16 17 17 18 19 20 21 21 22 23 24 24 25 25 26 26 27 27 28 28 28 29 29 29 29 29 30 30 30 30 30 30 30 30 31 32 33 33 34 34 35 35 35 34 34 34 34 33 33 32 32 32
8 8 8 9 9 10 10 10 11 12 13 13 14 15 16 17 17 18 19 20 21 21 22 23 24 25 25 25 26 26 27 27 28 28 28 29 29 29 29 29 29 29 29 29 29 30 30 30 30 30 31 31 32 33 34 34 34 35 35 35 35 35 35 35 34 34 33 33 32
9 9 9 10 10 11 12 12 13 14 15 16 17 17 18 19 20 21 21 22 23 24 24 25 26 26 26 27 27 27 27 28 28 28 28 28 29 29 29 28 29 29 29 29 29 30 30 30 30 31 31 31 32 33 34 34 35 35 35 35 35 35 35 35 35 35 34 34 33
10 10 11 11 12 13 13 14 15 16 17 18 19 19 20 21 22 22 23 24 24 25 26 26 26 27 27 27 27 27 27 27 28 28 28 28 28 28 28 28 28 29 29 29 30 30 30 31 31 31 32 32 33 33 34 35 35 35 35 35 35 35 35 35 35 35 35 34 34
11 11 12 13 13 14 15 16 17 18 19 19 20 21 21 22 23 23 24 25 25 25 26 26 26 27 27 27 27 27 27 27 27 27 28 28 28 29 29 29 29 29 30 30 31 31 31 32 32 32 33 33 33 34 35 35 35 36 36 36 36 36 36 36 35 35 35 34 34
12 13 13 14 15 16 16 17 18 19 20 20 21 21 22 23 23 24 24 25 25 25 26 26 26 26 26 27 27 27 27 27 27 28 28 29 29 30 30 30 30 30 31 31 32 32 32 32 33 33 33 34 34 34 35 36 36 36 37 37 37 37 36 36 36 35 35 34 33
13 14 14 15 16 17 17 18 19 20 20 21 21 22 22 23 23 24 24 24 25 25 25 25 26 26 26 26 27 27 28 28 28 29 29 30 30 30 31 31 31 31 32 32 32 32 33 33 33 33 34 34 34 35 35 36 36 37 37 37 37 37 36 36 35 35 34 33 32
14 15 15 16 17 17 18 19 19 20 21 21 21 22 22 23 23 23 24 24 24 25 25 25 25 26 26 27 27 28 28 29 29 30 30 31 31 31 31 32 32 32 32 32 32 33 33 33 33 33 34 34 34 35 36 36 36 36 36 37 36 36 35 35 34 33 32 32 31
14 15 16 16 17 18 18 19 20 20 21 21 21 22 22 22 23 23 24 24 25 25 25 26 26 27 27 27 28 28 29 30 30 30 31 31 32 32 32 32 32 32 32 32 32 33 33 33 33 33 33 34 34 35 35 35 35 36 36 36 35 35 34 34 33 32 31 31 30
15 15 16 17 17 18 19 19 20 20 20 21 21 22 22 22 23 24 24 25 25 26 26 26 27 27 28 28 29 29 30 30 30 31 31 32 32 32 32 32 32 32 32 32 32 32 32 32 32 32 32 33 33 34 34 34 35 35 34 35 35 34 34 33 32 32 31 31 30
15 16 17 17 18 18 19 19 20 20 20 21 22 22 23 23 24 24 25 25 26 26 27 27 28 28 29 29 29 29 30 30 31 31 31 32 32 32 32 33 33 32 32 32 32 32 32 32 32 32 32 32 32 33 33 33 34 34 34 34 34 34 33 32 32 32 32 31 30
16 16 17 17 18 18 19 19 19 20 21 22 22 23 23 24 24 25 26 26 26 27 27 28 28 29 29 29 30 30 30 30 30 31 31 31 32 32 32 33 33 32 32 32 32 32 32 32 31 31 31 31 31 32 32 32 33 33 33 33 33 34 33 32 31 32 32 31 30
16 17 17 17 18 18 19 19 20 21 21 22 23 24 24 25 25 25 26 26 27 27 28 28 28 29 29 30 30 30 30 30 30 30 31 31 32 32 32 32 33 33 32 32 32 32 32 32 32 31 31 31 31 31 32 32 33 33 33 33 33 34 34 34 33 32 32 31 30
16 17 17 18 18 19 19 20 21 21 22 23 24 24 25 25 25 25 26 26 27 27 28 28 28 29 29 30 30 31 31 31 31 31 31 31 32 32 32 32 33 33 33 32 32 32 32 32 32 32 31 31 31 31 32 33 33 34 34 34 34 34 35 36 36 35 34 33 32
Wind_Direction
175 174 175 177 177 179 182 187 190 189 182 174 171 172 177 183 189 193 197 201 204 207 205 193 175 162 160 167 175 185 195 201 204 210 218 222 223 225 227 230 233 237 241 244 248 250 253 256 258 260 262 265 266 267 267 267 266 266 266 267 268 268 268 268 268 268 268 269 270
155 153 154 159 164 169 173 177 178 178 176 173 174 178 185 192 198 200 201 199 191 181 171 167 165 165 168 174 181 188 196 206 214 221 227 231 233 235 237 238 240 242 244 246 248 251 253 256 257 258 260 260 260 260 260 261 262 263 265 267 269 270 270 270 270 270 270 270 271
148 144 146 151 156 159 161 163 164 164 164 166 172 180 185 187 186 183 175 165 158 156 159 166 174 178 181 185 192 198 205 213 221 226 230 233 235 236 238 238 240 242 244 246 247 249 251 254 256 258 260 261 261 261 261 264 267 269 271 272 273 273 273 274 275 275 274 274 274
146 143 143 146 148 148 148 149 150 150 151 155 162 168 168 164 159 154 150 149 152 156 162 170 181 188 194 198 203 208 213 218 223 225 227 229 231 234 236 238 241 244 248 251 255 257 259 262 266 269 270 269 269 270 271 273 274 275 275 275 275 275 275 276 277 278 279 279 279
143 141 141 142 143 142 143 144 146 149 152 154 158 157 153 149 147 147 148 151 155 161 168 178 187 194 199 203 207 211 215 218 221 224 228 231 235 239 242 246 250 254 258 263 267 271 274 276 278 279 279 277 277 278 279 278 278 278 279 279 278 278 279 281 282 282 283 284 284
141 141 142 143 145 146 147 151 155 157 158 158 158 156 152 150 150 152 154 157 162 169 177 184 190 193 197 200 205 210 215 221 227 233 238 244 249 254 259 264 267 271 274 277 279 280 282 283 284 284 284 283 284 283 283 281 281 282 283 283 283 284 285 286 287 287 287 287 287
141 141 142 142 143 144 146 148 151 154 154 154 154 154 153 154 157 159 162 165 168 172 176 180 183 187 191 197 204 213 222 231 238 245 250 256 262 267 271 275 278 280 281 282 284 284 285 286 286 286 286 286 287 286 285 284 285 286 287 288 289 289 289 290 290 290 290 289 289
135 133 131 129 127 127 128 130 135 139 142 146 149 152 154 156 157 158 160 160 161 162 166 170 175 182 190 200 211 220 230 238 246 251 257 262 267 271 275 277 279 281 282 283 284 285 286 287 287 287 288 288 288 288 287 287 287 288 289 291 292 292 292 292 292 291 291 290 290
119 116 114 112 111 111 113 115 120 126 133 140 143 146 147 147 147 147 149 150 153 159 165 172 180 192 205 217 225 236 245 252 259 264 269 272 275 277 279 280 282 283 284 285 285 286 287 288 288 289 289 289 289 289 289 289 289 290 290 292 293 293 293 293 293 292 291 291 290
107 107 107 108 109 111 114 117 122 127 131 134 136 136 137 137 139 142 146 151 159 166 174 185 203 222 239 250 259 265 270 274 278 280 283 284 284 285 285 286 287 287 288 288 288 289 289 290 290 291 291 291 291 291 291 291 291 292 292 293 293 293 294 293 293 293 292 291 290
109 110 111 112 113 116 119 123 126 128 130 130 131 132 133 136 140 144 151 159 167 178 197 228 253 268 276 281 283 284 286 287 289 290 290 291 291 291 292 292 292 292 292 292 292 292 292 292 292 292 292 292 292 293 293 293 293 293 293 293 293 294 294 294 293 293 292 291 291
111 112 113 113 114 117 120 123 125 126 127 128 129 130 133 136 140 147 156 176 204 247 266 276 282 286 288 289 290 291 291 292 293 294 294 294 295 295 295 295 295 295 295 295 294 294 293 293 293 293 292 293 293 293 293 293 293 293 293 293 293 293 293 293 293 292 292 291 291
111 112 112 112 114 116 118 120 121 122 122 123 124 126 128 131 137 173 289 295 292 290 289 290 292 293 293 294 294 294 295 295 295 296 296 296 296 296 296 296 296 296 296 295 295 295 295 294 293 293 293 292 292 292 292 292 292 292 292 292 292 292 292 292 291 291 290 290 290
111 112 112 112 114 116 117 117 116 116 115 114 114 110 81 331 315 308 306 302 299 297 297 297 297 297 297 297 297 296 296 296 296 296 296 296 296 296 296 296 295 295 295 295 295 295 295 295 294 294 293 293 293 293 293 293 293 293 293 292 292 292 292 291 290 290 290 289 289
110 110 110 111 112 113 113 110 106 100 86 55 355 329 320 314 309 306 304 302 300 299 299 299 299 298 298 298 297 297 297 296 296 296 295 295 295 295 294 294 294 294 294 295 295 295 295 295 295 294 294 294 294 293 293 293 293 293 293 293 293 292 292 291 290 290 290 289 289
103 102 102 101 100 97 89 74 44 10 343 329 320 315 311 308 305 304 302 301 299 299 299 298 298 297 297 297 296 296 296 295 295 294 294 293 293 293 293 293 294 294 294 294 294 294 294 295 294 295 295 294 294 294 294 294 293 293 293 293 293 292 292 291 291 290 290 289 289
87 83 79 72 58 39 13 355 339 328 321 315 311 308 306 304 303 302 301 300 300 299 298 298 297 297 297 296 296 295 295 295 294 294 294 294 294 294 294 295 295 295 295 295 295 295 294 294 294 294 294 294 294 294 293 293 293 292 292 292 292 291 291 291 290 290 289 289 288
61 52 39 22 4 350 339 331 324 319 314 310 308 306 305 304 304 303 303 302 302 301 301 301 300 300 300 300 299 299 299 299 299 299 299 299 299 299 299 300 300 299 299 299 298 297 297 296 296 296 295 295 294 293 293 292 292 291 291 290 290 289 289 289 288 288 288 287 287
29 16 3 350 341 334 329 324 319 316 313 311 310 310 309 309 308 309 308 308 307 307 308 308 308 308 308 308 308 308 307 307 307 307 307 307 307 307 306 306 305 305 304 304 303 302 301 300 299 298 297 296 296 295 294 293 292 291 290 290 289 288 288 287 287 287 286 286 286
4 355 347 340 335 330 325 322 320 318 317 317 317 317 317 317 317 317 317 317 316 317 317 317 317 317 317 317 317 317 316 316 316 316 315 314 314 313 312 312 311 310 309 308 307 306 305 304 303 302 301 300 299 298 296 295 294 293 292 291 290 289 288 288 287 287 287 286 286
356 351 345 340 336 333 331 328 327 327 327 328 328 328 328 327 327 327 327 327 327 327 326 325 325 324 324 324 324 324 323 323 322 321 320 319 318 317 316 316 315 313 312 311 310 309 308 307 306 305 304 303 302 301 300 298 297 296 295 294 293 292 291 291 290 289 289 288 287
0 357 354 350 349 347 346 345 345 345 345 344 343 342 340 339 338 338 337 337 336 335 334 332 331 330 329 328 328 327 326 326 325 324 322 321 320 319 318 317 316 315 314 312 311 310 309 308 307 306 305 305 303 303 302 301 300 299 298 297 296 295 295 294 293 292 292 291 290
12 11 10 9 7 7 6 5 4 2 360 358 355 353 352 350 348 346 345 343 341 339 338 336 334 333 332 330 329 328 326 326 324 323 322 321 320 319 318 317 316 315 314 313 312 311 310 309 308 307 306 306 305 304 303 302 301 301 300 299 298 298 297 296 296 295 294 293 292
27 27 26 24 23 21 19 16 14 10 6 4 2 359 356 354 352 349 347 344 342 340 338 337 335 333 332 330 328 327 325 324 323 322 321 320 319 318 317 316 316 315 314 314 313 313 312 311 310 309 308 307 306 305 304 303 302 301 301 300 299 298 297 297 296 296 295 295 294
41 39 38 36 33 29 25 21 16 11 7 4 2 359 356 353 350 347 345 343 340 338 336 335 333 331 330 328 327 326 324 323 322 321 320 319 318 318 317 317 316 315 315 314 314 314 313 313 312 311 310 309 307 306 305 304 303 302 301 301 300 299 298 297 296 296 295 295 294
50 47 44 40 35 30 25 19 14 9 6 2 359 356 352 350 347 344 342 340 337 335 334 332 330 329 328 327 326 324 323 322 321 320 319 318 317 317 317 316 316 315 315 314 313 313 313 313 312 312 311 310 309 307 306 305 304 304 303 302 301 301 300 299 298 297 296 295 295
51 47 42 36 31 25 20 14 9 5 2 358 354 351 348 346 343 341 339 337 335 333 332 330 329 328 327 326 325 324 322 321 320 319 318 317 317 316 315 315 315 314 314 313 313 312 312 312 312 311 311 311 310 310 308 308 307 306 306 305 304 304 303 303 302 301 299 298 296
44 38 33 27 22 17 12 7 3 359 355 352 349 347 345 343 341 339 337 336 334 332 331 329 328 327 326 325 324 323 322 321 320 319 318 317 316 315 315 314 314 314 314 313 313 313 312 312 312 312 312 313 313 312 311 311 310 309 309 308 308 308 307 307 306 305 303 302 300
32 27 22 17 13 8 3 359 356 353 350 348 346 344 342 341 339 337 336 334 332 331 330 329 327 326 325 324 323 322 322 321 320 319 318 317 316 316 316 316 316 315 315 315 315 315 315 315 315 315 315 315 315 314 314 313 313 312 312 311 311 311 310 309 309 308 307 305 304
21 16 12 8 4 359 356 353 351 348 347 345 344 342 340 339 337 335 334 332 331 330 329 328 327 325 324 323 323 322 321 321 320 320 319 319 318 318 318 319 319 319 319 319 319 319 319 319 319 318 318 317 316 315 315 314 314 313 313 312 312 312 311 310 310 309 308 307 306
11 7 3 359 356 353 351 349 347 346 345 343 341 340 338 336 334 333 332 330 329 328 327 326 325 324 324 323 323 323 322 322 322 322 322 322 321 322 322 323 323 323 323 323 323 322 322 321 321 320 319 318 317 316 315 314 313 313 312 311 311 311 310 310 309 309 308 308 308
3 359 357 354 351 349 347 346 345 343 342 340 338 337 335 334 332 331 330 329 328 327 326 325 325 324 324 324 324 325 325 325 325 325 325 325 325 325 325 325 326 325 325 324 324 323 323 322 321 320 319 318 316 315 314 313 312 311 311 310 310 309 309 309 309 309 309 309 308
356 353 351 349 347 345 344 342 341 340 338 337 335 334 333 332 330 329 329 328 328 327 327 326 326 326 327 327 327 327 327 327 327 327 327 326 326 326 326 326 326 326 325 325 324 323 322 321 320 319 318 317 316 315 313 313 312 311 310 310 309 309 309 309 309 309 309 309 309
351 348 346 345 343 341 340 339 338 336 336 335 334 333 332 331 330 329 329 329 329 329 328 329 329 329 329 329 329 329 329 328 328 328 327 327 326 326 326 326 325 325 324 324 323 322 321 321 320 319 318 317 316 315 314 313 312 311 311 311 310 310 311 310 310 310 310 310 310
345 344 342 341 339 338 337 337 336 335 334 334 333 332 332 331 331 330 330 330 330 330 331 331 331 331 331 330 330 330 329 328 328 327 327 326 325 325 324 324 324 324 323 323 322 321 321 320 320 319 318 317 316 315 315 314 313 313 313 313 312 312 312 312 311 311 311 311 310
341 340 339 338 338 337 336 336 335 335 334 334 333 333 332 332 332 332 332 332 332 332 332 332 331 331 330 330 329 329 328 328 327 326 325 325 324 323 323 323 323 322 322 321 321 321 320 320 320 319 319 318 317 316 316 316 315 315 314 314 313 313 312 312 312 311 310 310 309
339 338 338 337 337 337 336 336 335 335 334 334 333 333 333 333 333 333 332 333 332 332 332 331 331 330 329 328 328 328 327 326 325 325 324 323 322 322 321 321 321 321 321 321 320 320 320 320 320 320 320 319 319 318 318 317 317 316 315 315 314 314 313 313 312 311 310 309 308
338 338 338 337 337 337 336 336 335 335 334 334 334 334 334 334 333 333 333 332 332 331 331 330 329 328 327 327 326 326 325 325 324 323 322 322 321 321 321 321 320 321 321 321 320 320 321 321 321 322 322 322 321 321 320 319 318 317 316 316 315 315 314 314 313 312 311 309 307
338 338 337 337 337 337 336 336 335 334 334 334 334 334 333 333 333 332 332 331 331 330 329 328 327 326 325 325 324 324 323 323 322 322 321 321 321 321 321 321 320 320 321 321 321 321 321 322 323 323 324 324 324 323 322 321 320 318 317 317 316 315 315 314 313 312 311 309 306
337 337 337 337 337 337 336 336 335 335 334 334 333 333 332 332 331 330 330 329 328 327 327 326 325 324 324 323 322 322 321 321 321 320 320 320 320 320 320 320 320 320 320 321 321 321 321 322 323 323 324 324 324 324 322 321 320 319 318 317 316 315 315 314 313 312 310 307 305
337 337 338 337 337 337 336 336 335 334 334 333 332 331 330 329 328 328 327 326 325 325 324 324 323 323 322 322 321 321 320 320 320 320 320 320 320 320 320 320 319 319 319 319 319 319 320 320 320 321 322 323 323 322 321 320 319 318 318 317 316 315 314 313 312 310 309 307 305
Height
1454 1454 1456 1458 1460 1463 1465 1467 1468 1469 1470 1471 1472 1473 1474 1474 1476 1477 1478 1479 1480 1481 1481 1482 1483 1483 1483 1484 1484 1484 1485 1485 1486 1487 1487 1487 1487 1487 1487 1487 1487 1488 1488 1488 1489 1489 1489 1489 1489 1489 1489 1489 1489 1489 1489 1489 1489 1489 1489 1489 1489 1488 1488 1487 1486 1486 1485 1484 1483
1454 1456 1457 1459 1462 1464 1466 1467 1469 1469 1469 1469 1471 1472 1473 1474 1475 1476 1477 1478 1478 1479 1480 1480 1481 1481 1482 1483 1483 1484 1484 1485 1485 1485 1486 1486 1486 1486 1486 1486 1486 1486 1487 1487 1487 1487 1487 1487 1487 1488 1488 1488 1488 1488 1487 1487 1487 1487 1486 1486 1486 1485 1485 1485 1484 1484 1483 1482 1481
1454 1455 1457 1459 1461 1462 1464 1465 1466 1467 1468 1469 1470 1472 1473 1474 1475 1475 1476 1477 1477 1478 1479 1479 1480 1480 1481 1482 1483 1483 1484 1484 1484 1485 1485 1485 1485 1485 1485 1485 1485 1486 1486 1486 1486 1486 1486 1486 1486 1486 1486 1486 1486 1486 1485 1485 1485 1485 1484 1484 1484 1484 1483 1483 1482 1481 1480 1479 1479
1456 1457 1458 1460 1462 1463 1464 1466 1467 1468 1469 1471 1472 1473 1474 1474 1475 1475 1476 1476 1477 1478 1479 1479 1480 1480 1481 1482 1482 1483 1483 1484 1484 1484 1485 1485 1485 1485 1485 1485 1485 1485 1485 1484 1484 1484 1484 1484 1484 1484 1484 1484 1484 1484 1484 1484 1484 1483 1483 1482 1482 1482 1481 1480 1480 1479 1478 1477 1476
1457 1458 1459 1461 1463 1464 1466 1468 1469 1470 1471 1472 1473 1474 1474 1474 1474 1475 1476 1476 1477 1478 1479 1479 1480 1481 1482 1482 1483 1483 1483 1484 1484 1484 1484 1484 1484 1484 1484 1484 1484 1484 1483 1483 1483 1483 1483 1483 1483 1483 1483 1483 1482 1482 1482 1482 1482 1481 1481 1481 1480 1480 1479 1478 1477 1476 1475 1474 1474
1457 1459 1460 1462 1464 1465 1467 1468 1469 1471 1471 1472 1473 1473 1474 1474 1475 1475 1476 1477 1478 1479 1479 1480 1481 1481 1482 1482 1482 1482 1483 1483 1483 1483 1483 1483 1483 1483 1483 1483 1482 1482 1482 1482 1482 1481 1481 1481 1481 1481 1481 1481 1481 1481 1481 1480 1480 1479 1479 1479 1478 1478 1477 1476 1475 1474 1473 1472 1472
1458 1459 1461 1462 1464 1465 1466 1468 1469 1470 1471 1472 1473 1473 1474 1475 1475 1476 1477 1478 1478 1479 1479 1480 1480 1481 1481 1481 1482 1482 1482 1482 1482 1482 1482 1482 1482 1482 1482 1482 1481 1481 1481 1481 1480 1480 1480 1480 1480 1480 1479 1479 1479 1479 1479 1478 1478 1477 1477 1476 1476 1475 1474 1474 1473 1472 1471 1470 1470
1458 1459 1461 1462 1463 1464 1465 1467 1468 1470 1471 1472 1473 1474 1475 1475 1476 1476 1477 1478 1478 1479 1479 1480 1480 1480 1481 1481 1481 1481 1482 1482 1482 1482 1482 1482 1481 1481 1481 1481 1480 1480 1480 1479 1479 1479 1479 1479 1478 1478 1478 1478 1477 1477 1477 1476 1476 1475 1474 1474 1473 1473 1472 1472 1471 1470 1469 1469 1468
1458 1459 1461 1462 1464 1465 1466 1468 1469 1471 1472 1473 1474 1475 1475 1476 1476 1476 1477 1477 1478 1479 1479 1479 1480 1480 1480 1480 1481 1481 1481 1481 1481 1481 1481 1480 1480 1480 1480 1479 1479 1479 1479 1478 1478 1478 1477 1477 1477 1476 1476 1476 1475 1475 1474 1474 1474 1473 1472 1472 1471 1470 1470 1469 1469 1468 1467 1467 1466
1459 1461 1462 1464 1465 1467 1468 1469 1471 1472 1473 1474 1474 1475 1475 1476 1476 1477 1477 1477 1478 1478 1479 1479 1479 1479 1480 1480 1480 1480 1480 1480 1480 1479 1479 1479 1479 1479 1479 1478 1478 1477 1477 1477 1476 1476 1475 1475 1475 1474 1474 1474 1473 1473 1472 1471 1471 1470 1469 1469 1468 1468 1467 1467 1466 1466 1465 1465 1464
1461 1463 1464 1465 1467 1468 1469 1470 1471 1472 1473 1474 1474 1475 1475 1476 1476 1476 1477 1477 1478 1478 1478 1478 1479 1479 1479 1479 1479 1479 1479 1479 1478 1478 1478 1478 1478 1477 1477 1476 1476 1475 1475 1475 1474 1474 1474 1473 1473 1472 1472 1471 1471 1470 1469 1469 1469 1468 1467 1466 1466 1465 1465 1464 1464 1464 1463 1463 1462
1463 1464 1465 1466 1468 1469 1470 1471 1471 1472 1473 1474 1474 1475 1475 1475 1476 1476 1476 1477 1477 1477 1477 1478 1478 1478 1478 1477 1477 1477 1477 1477 1477 1477 1476 1476 1476 1475 1475 1474 1474 1474 1473 1473 1472 1472 1471 1471 1471 1470 1470 1469 1469 1468 1467 1467 1466 1465 1465 1464 1464 1463 1463 1462 1462 1461 1461 1460 1460
1464 1465 1466 1467 1468 1469 1470 1471 1472 1472 1473 1473 1474 1474 1474 1475 1475 1475 1476 1476 1476 1476 1476 1476 1476 1476 1476 1476 1476 1476 1476 1475 1475 1475 1475 1474 1474 1474 1473 1473 1472 1472 1471 1471 1470 1470 1469 1469 1469 1468 1468 1467 1467 1466 1465 1464 1464 1463 1463 1462 1461 1461 1460 1460 1460 1459 1459 1458 1458
1465 1466 1467 1468 1469 1470 1470 1471 1471 1472 1472 1473 1473 1474 1474 1474 1474 1475 1475 1475 1475 1475 1475 1475 1475 1475 1475 1474 1474 1474 1474 1474 1474 1473 1473 1473 1472 1472 1471 1471 1470 1470 1469 1469 1469 1468 1467 1467 1466 1466 1465 1465 1464 1464 1463 1462 1462 1461 1460 1460 1459 1459 1458 1458 1457 1457 1456 1456 1455
1466 1467 1468 1469 1469 1470 1470 1471 1471 1471 1472 1472 1472 1473 1473 1473 1474 1474 1474 1474 1474 1474 1474 1474 1474 1474 1473 1473 1473 1473 1472 1472 1472 1472 1471 1471 1471 1470 1470 1469 1469 1468 1468 1467 1467 1466 1465 1465 1464 1464 1463 1463 1462 1462 1461 1460 1459 1459 1458 1458 1457 1457 1456 1456 1455 1455 1454 1454 1453
1466 1467 1468 1468 1469 1469 1469 1470 1470 1470 1471 1471 1471 1472 1472 1472 1472 1473 1473 1473 1473 1473 1473 1472 1472 1472 1472 1472 1472 1471 1471 1471 1470 1470 1470 1469 1469 1469 1468 1468 1467 1467 1466 1466 1465 1464 1464 1463 1462 1461 1461 1460 1460 1459 1459 1458 1457 1457 1456 1456 1455 1454 1454 1454 1453 1453 1452 1451 1451
1466 1466 1467 1467 1468 1468 1468 1469 1469 1469 1470 1470 1470 1471 1471 1471 1471 1471 1471 1471 1471 1471 1471 1471 1471 1471 1471 1470 1470 1470 1470 1469 1469 1469 1468 1468 1467 1467 1466 1466 1465 1465 1464 1464 1463 1462 1462 1461 1460 1459 1459 1458 1458 1457 1456 1456 1455 1454 1454 1454 1453 1453 1452 1452 1451 1450 1450 1449 1449
1465 1465 1466 1466 1467 1467 1467 1468 1468 1468 1469 1469 1469 1469 1470 1470 1470 1470 1470 1470 1470 1470 1470 1470 1469 1469 1469 1469 1469 1469 1468 1468 1468 1467 1467 1466 1466 1465 1464 1464 1464 1463 1462 1461 1461 1460 1459 1459 1458 1458 1457 1456 1455 1455 1454 1454 1453 1452 1452 1451 1451 1451 1450 1450 1449 1449 1448 1447 1446
1464 1465 1465 1465 1466 1466 1466 1467 1467 1467 1468 1468 1468 1469 1469 1469 1469 1469 1469 1469 1469 1469 1469 1469 1468 1468 1468 1468 1467 1467 1467 1466 1466 1465 1465 1464 1464 1463 1463 1462 1461 1461 1460 1459 1459 1458 1457 1457 1456 1455 1454 1454 1453 1453 1452 1451 1451 1450 1450 1449 1449 1449 1448 1448 1447 1446 1446 1445 1444
1464 1464 1464 1465 1465 1465 1466 1466 1466 1467 1467 1467 1467 1468 1468 1468 1468 1468 1468 1468 1468 1468 1467 1467 1467 1467 1467 1466 1466 1466 1465 1465 1464 1464 1463 1463 1462 1461 1461 1460 1460 1459 1458 1458 1457 1456 1455 1455 1454 1453 1453 1452 1451 1450 1450 1449 1449 1448 1448 1448 1447 1447 1446 1445 1445 1444 1443 1443 1442
1463 1464 1464 1464 1464 1465 1465 1465 1466 1466 1466 1466 1467 1467 1467 1467 1467 1467 1467 1467 1467 1467 1466 1466 1466 1466 1465 1465 1465 1464 1464 1464 1463 1462 1462 1461 1461 1460 1459 1459 1458 1458 1457 1456 1455 1454 1454 1453 1452 1452 1451 1450 1449 1449 1448 1447 1447 1446 1446 1445 1445 1444 1444 1443 1442 1442 1441 1440 1439
1463 1463 1463 1464 1464 1464 1465 1465 1465 1465 1466 1466 1466 1466 1466 1466 1466 1466 1466 1466 1466 1466 1466 1465 1465 1465 1464 1464 1464 1463 1463 1462 1462 1461 1461 1460 1459 1459 1458 1458 1457 1456 1455 1455 1454 1453 1452 1452 1451 1450 1449 1448 1448 1447 1446 1445 1444 1444 1443 1443 1442 1442 1441 1440 1440 1439 1438 1438 1437
1462 1463 1463 1463 1464 1464 1464 1465 1465 1465 1465 1466 1466 1466 1466 1466 1466 1466 1466 1466 1465 1465 1465 1464 1464 1464 1464 1463 1463 1462 1462 1461 1461 1460 1460 1459 1459 1458 1457 1456 1456 1455 1454 1453 1453 1452 1451 1450 1449 1448 1447 1446 1445 1444 1444 1443 1442 1441 1440 1440 1439 1439 1438 1438 1437 1436 1436 1435 1434
1462 1463 1463 1464 1464 1464 1464 1465 1465 1465 1465 1466 1466 1466 1466 1466 1465 1465 1465 1465 1465 1464 1464 1464 1464 1463 1463 1462 1462 1461 1461 1460 1460 1459 1459 1458 1457 1457 1456 1455 1454 1454 1453 1452 1451 1450 1449 1448 1447 1446 1445 1444 1443 1442 1441 1441 1440 1439 1438 1437 1436 1436 1435 1435 1434 1434 1433 1432 1431
1463 1463 1464 1464 1464 1464 1465 1465 1465 1465 1465 1465 1465 1465 1465 1465 1465 1465 1465 1464 1464 1464 1464 1463 1463 1463 1462 1462 1461 1460 1460 1459 1459 1458 1457 1457 1456 1455 1454 1454 1453 1452 1451 1450 1449 1449 1447 1446 1445 1444 1443 1442 1441 1440 1439 1438 1437 1437 1436 1434 1434 1433 1432 1432 1431 1431 1430 1429 1429
1464 1464 1464 1464 1465 1465 1465 1465 1465 1465 1465 1465 1465 1465 1465 1465 1465 1465 1464 1464 1464 1464 1463 1463 1462 1462 1461 1460 1460 1459 1458 1458 1457 1456 1455 1455 1454 1453 1453 1452 1451 1450 1449 1449 1448 1447 1446 1445 1444 1442 1441 1439 1438 1437 1436 1435 1435 1434 1433 1432 1431 1430 1429 1429 1428 1428 1427 1427 1426
1464 1464 1464 1465 1465 1465 1465 1465 1465 1465 1465 1465 1465 1465 1465 1464 1464 1464 1464 1463 1463 1462 1462 1461 1461 1460 1459 1459 1458 1458 1457 1456 1455 1454 1454 1453 1452 1451 1451 1450 1449 1448 1447 1446 1446 1445 1444 1443 1442 1440 1439 1437 1436 1434 1434 1432 1431 1431 1430 1429 1428 1427 1426 1425 1424 1424 1424 1423 1423
1464 1464 1465 1465 1465 1465 1465 1465 1465 1465 1465 1465 1464 1464 1464 1464 1463 1463 1463 1462 1462 1461 1461 1460 1459 1459 1458 1457 1456 1456 1455 1454 1453 1452 1452 1451 1450 1449 1449 1448 1447 1446 1445 1444 1444 1443 1442 1440 1439 1438 1437 1435 1434 1432 1430 1429 1428 1427 1426 1426 1425 1424 1423 1422 1421 1420 1420 1419 1419
1464 1465 1465 1465 1465 1465 1465 1465 1465 1464 1464 1464 1464 1463 1463 1463 1462 1462 1461 1461 1460 1459 1459 1458 1458 1457 1456 1455 1454 1454 1453 1452 1451 1450 1450 1449 1448 1448 1447 1446 1445 1444 1443 1442 1441 1440 1439 1438 1437 1436 1434 1433 1431 1429 1428 1426 1425 1424 1423 1422 1421 1420 1420 1419 1418 1417 1416 1415 1415
1464 1464 1465 1465 1464 1464 1464 1464 1464 1464 1463 1463 1463 1462 1462 1461 1461 1460 1460 1459 1459 1458 1457 1456 1456 1455 1454 1454 1453 1452 1451 1450 1449 1449 1448 1447 1446 1445 1445 1444 1443 1442 1441 1440 1439 1438 1436 1435 1434 1433 1432 1430 1429 1427 1425 1424 1423 1421 1420 1419 1418 1418 1417 1416 1415 1414 1413 1412 1411
1464 1464 1464 1464 1464 1464 1464 1464 1463 1463 1462 1462 1461 1461 1460 1460 1459 1459 1458 1458 1457 1456 1456 1455 1454 1454 1453 1452 1451 1450 1449 1449 1448 1446 1445 1444 1444 1443 1442 1441 1440 1439 1439 1437 1436 1435 1434 1433 1431 1430 1429 1428 1426 1424 1423 1422 1420 1419 1418 1417 1416 1415 1414 1413 1412 1411 1410 1409 1408
1464 1464 1464 1464 1464 1464 1463 1463 1462 1462 1462 1461 1461 1460 1459 1459 1459 1458 1457 1457 1456 1455 1454 1454 1453 1452 1451 1450 1449 1448 1447 1446 1445 1444 1443 1442 1441 1440 1440 1439 1438 1437 1436 1435 1434 1432 1431 1430 1429 1428 1426 1425 1424 1422 1421 1419 1418 1417 1415 1414 1413 1412 1411 1410 1409 1408 1407 1407 1406
1464 1464 1464 1464 1463 1463 1463 1462 1462 1461 1461 1460 1460 1459 1459 1458 1457 1457 1456 1455 1454 1454 1453 1452 1451 1450 1449 1448 1447 1446 1445 1444 1443 1442 1441 1440 1439 1438 1437 1436 1435 1434 1434 1432 1431 1430 1429 1428 1426 1425 1424 1423 1421 1419 1418 1417 1415 1414 1413 1412 1410 1409 1409 1408 1406 1405 1404 1404 1403
1464 1464 1463 1463 1463 1463 1462 1462 1461 1461 1460 1460 1459 1458 1458 1457 1456 1455 1454 1454 1453 1452 1451 1450 1449 1448 1447 1446 1445 1444 1443 1442 1441 1440 1439 1438 1437 1436 1435 1434 1434 1433 1431 1430 1429 1428 1427 1425 1424 1423 1421 1420 1418 1417 1415 1414 1413 1411 1410 1409 1408 1407 1406 1405 1404 1403 1402 1401 1400
1464 1464 1463 1463 1463 1462 1462 1461 1461 1460 1459 1459 1458 1457 1456 1455 1454 1454 1453 1452 1451 1450 1449 1448 1447 1446 1444 1444 1443 1442 1441 1440 1439 1438 1437 1436 1435 1434 1433 1433 1432 1431 1430 1429 1427 1426 1425 1424 1422 1421 1419 1418 1416 1414 1413 1411 1410 1409 1407 1406 1405 1404 1403 1402 1401 1400 1400 1399 1398
1464 1464 1463 1463 1462 1461 1461 1460 1459 1459 1458 1457 1456 1455 1454 1454 1452 1451 1450 1449 1449 1448 1447 1446 1445 1444 1443 1442 1441 1440 1439 1438 1437 1436 1435 1434 1433 1432 1431 1431 1430 1429 1428 1427 1425 1424 1423 1422 1420 1419 1417 1415 1414 1412 1410 1409 1407 1406 1405 1404 1403 1402 1401 1400 1399 1398 1397 1397 1396
1464 1463 1462 1462 1461 1460 1460 1459 1458 1457 1456 1455 1454 1454 1453 1452 1450 1449 1449 1448 1447 1446 1445 1444 1443 1442 1441 1440 1439 1439 1438 1436 1435 1434 1433 1432 1431 1430 1429 1429 1428 1427 1426 1425 1424 1422 1421 1420 1418 1417 1415 1413 1411 1409 1408 1407 1405 1404 1403 1401 1400 1399 1399 1398 1397 1396 1395 1394 1394
1463 1462 1461 1461 1460 1459 1458 1457 1456 1455 1454 1454 1453 1452 1451 1450 1449 1448 1447 1446 1445 1444 1443 1443 1442 1441 1440 1439 1438 1437 1436 1435 1434 1433 1432 1431 1429 1429 1428 1427 1426 1425 1424 1423 1422 1420 1419 1418 1416 1414 1413 1411 1409 1407 1406 1404 1403 1401 1400 1399 1398 1397 1396 1395 1394 1393 1392 1391 1391
1462 1461 1460 1459 1459 1458 1457 1456 1455 1454 1453 1452 1451 1450 1449 1448 1447 1446 1445 1444 1444 1443 1442 1441 1440 1439 1438 1437 1437 1436 1435 1434 1433 1432 1430 1429 1428 1427 1425 1424 1424 1423 1422 1421 1419 1418 1417 1415 1414 1413 1411 1409 1407 1406 1404 1402 1401 1399 1398 1397 1395 1394 1393 1393 1392 1391 1389 1389 1388
1460 1460 1459 1458 1457 1456 1455 1454 1453 1452 1451 1450 1449 1449 1448 1447 1446 1445 1444 1443 1442 1441 1441 1440 1439 1438 1437 1436 1435 1434 1433 1433 1431 1430 1429 1428 1426 1425 1424 1423 1421 1420 1419 1419 1417 1416 1415 1414 1412 1411 1409 1408 1406 1404 1402 1401 1399 1397 1396 1395 1394 1392 1390 1389 1389 1389 1387 1386 1385
1459 1458 1457 1456 1455 1454 1454 1453 1452 1451 1450 1449 1448 1447 1447 1446 1445 1444 1443 1442 1441 1440 1439 1439 1438 1436 1435 1434 1433 1432 1431 1430 1429 1429 1427 1426 1424 1423 1422 1421 1419 1418 1417 1417 1416 1414 1413 1412 1411 1409 1408 1406 1404 1403 1401 1399 1398 1396 1394 1393 1392 1390 1389 1387 1386 1385 1385 1384 1383